�������l�o���
Date,Time,MP-1(��Sv/h),MP-2(��Sv/h),MP-3(��Sv/h),MP-4(��Sv/h),MP-5(��Sv/h),MP-6(��Sv/h),MP-7(��Sv/h),MP-8(��Sv/h),����,����(m/s),���J
2016/12/21,00:00,1.090,1.830,1.192,2.079,1.426,0.567,1.037,0.960,���k��,5.7,��
2016/12/21,00:10,1.088,1.828,1.191,2.079,1.425,0.566,1.037,0.959,���k��,4.3,��
2016/12/21,00:20,1.092,1.827,1.193,2.077,1.425,0.566,1.038,0.960,�k��,3.9,��
2016/12/21,00:30,1.089,1.827,1.190,2.080,1.423,0.566,1.038,0.960,�k��,4.4,��
2016/12/21,00:40,1.091,1.828,1.189,2.079,1.425,0.567,1.037,0.960,�k��,5.8,��
2016/12/21,00:50,1.092,1.827,1.190,2.077,1.425,0.566,1.036,0.959,�k��,7.1,��
2016/12/21,01:00,1.093,1.828,1.192,2.082,1.425,0.567,1.036,0.959,�k�k��,6.3,��
2016/12/21,01:10,1.091,1.825,1.189,2.078,1.425,0.566,1.036,0.960,�k��,7.0,��
2016/12/21,01:20,1.093,1.825,1.193,2.079,1.424,0.565,1.035,0.960,�k��,7.4,��
2016/12/21,01:30,1.090,1.826,1.188,2.078,1.422,0.566,1.036,0.961,�k�k��,4.9,��
2016/12/21,01:40,1.091,1.828,1.192,2.081,1.423,0.565,1.035,0.959,�k�k��,4.9,��
2016/12/21,01:50,1.089,1.828,1.191,2.079,1.422,0.566,1.035,0.960,�k�k��,5.0,��
2016/12/21,02:00,1.090,1.828,1.190,2.077,1.426,0.567,1.036,0.959,�k��,4.6,��
2016/12/21,02:10,1.089,1.825,1.190,2.075,1.423,0.566,1.035,0.960,�k��,3.9,��
2016/12/21,02:20,1.092,1.826,1.190,2.077,1.421,0.566,1.035,0.959,�k��,4.6,��
2016/12/21,02:30,1.091,1.827,1.189,2.079,1.422,0.565,1.036,0.960,�k��,3.0,��
2016/12/21,02:40,1.088,1.827,1.190,2.077,1.421,0.566,1.035,0.961,�k�k��,4.4,��
2016/12/21,02:50,1.088,1.828,1.188,2.076,1.425,0.565,1.035,0.959,�k��,4.5,��
2016/12/21,03:00,1.090,1.826,1.190,2.078,1.424,0.566,1.033,0.957,�k��,4.2,��
2016/12/21,03:10,1.092,1.822,1.189,2.079,1.424,0.564,1.036,0.958,�k�k��,3.6,��
2016/12/21,03:20,1.089,1.824,1.190,2.076,1.422,0.564,1.033,0.959,�k�k��,4.3,��
2016/12/21,03:30,1.089,1.824,1.189,2.079,1.425,0.566,1.035,0.959,�k�k��,4.0,��
2016/12/21,03:40,1.089,1.826,1.189,2.078,1.426,0.565,1.033,0.958,�k�k��,3.9,��
2016/12/21,03:50,1.090,1.827,1.189,2.077,1.420,0.566,1.035,0.959,�k�k��,3.8,��
2016/12/21,04:00,1.090,1.825,1.189,2.078,1.422,0.565,1.035,0.960,�k�k��,3.5,��
2016/12/21,04:10,1.090,1.827,1.189,2.076,1.424,0.566,1.033,0.960,�k�k��,4.0,��
2016/12/21,04:20,1.089,1.823,1.187,2.078,1.423,0.566,1.034,0.959,�k�k��,3.8,��
2016/12/21,04:30,1.089,1.829,1.188,2.076,1.423,0.565,1.034,0.958,�k�k��,3.2,��
2016/12/21,04:40,1.088,1.825,1.188,2.076,1.422,0.565,1.034,0.960,�k�k��,3.1,��
2016/12/21,04:50,1.088,1.825,1.189,2.077,1.423,0.567,1.034,0.958,�k�k��,2.8,��
2016/12/21,05:00,1.085,1.826,1.189,2.077,1.424,0.566,1.034,0.958,�k�k��,3.0,��
2016/12/21,05:10,1.088,1.824,1.187,2.073,1.420,0.565,1.036,0.959,�k�k��,3.0,��
2016/12/21,05:20,1.087,1.825,1.188,2.076,1.420,0.564,1.035,0.959,�k�k��,3.1,��
2016/12/21,05:30,1.087,1.825,1.188,2.076,1.419,0.564,1.034,0.958,�k��,2.8,��
2016/12/21,05:40,1.087,1.821,1.188,2.077,1.424,0.565,1.035,0.959,�k��,1.7,��
2016/12/21,05:50,1.087,1.825,1.191,2.077,1.423,0.565,1.036,0.960,���k��,1.2,��
2016/12/21,06:00,1.089,1.825,1.188,2.076,1.422,0.562,1.033,0.958,���k��,1.7,��
2016/12/21,06:10,1.088,1.824,1.184,2.076,1.422,0.564,1.032,0.959,�k��,1.1,��
2016/12/21,06:20,1.088,1.825,1.190,2.073,1.420,0.565,1.033,0.958,-,CALM,��
2016/12/21,06:30,1.088,1.824,1.190,2.076,1.422,0.564,1.033,0.961,���k��,1.4,��
2016/12/21,06:40,1.088,1.826,1.186,2.076,1.423,0.567,1.032,0.961,���k��,1.4,��
2016/12/21,06:50,1.087,1.825,1.186,2.077,1.422,0.564,1.034,0.960,��,1.5,��
2016/12/21,07:00,1.088,1.825,1.186,2.076,1.422,0.567,1.035,0.958,�쐼,0.6,��
2016/12/21,07:10,1.085,1.827,1.187,2.077,1.420,0.565,1.032,0.956,���쐼,1.4,��
2016/12/21,07:20,1.088,1.821,1.187,2.074,1.421,0.565,1.032,0.958,�k��,0.6,��
2016/12/21,07:30,1.087,1.822,1.185,2.075,1.420,0.564,1.032,0.959,�k��,1.5,��
2016/12/21,07:40,1.087,1.824,1.185,2.078,1.421,0.565,1.034,0.958,�k��,1.4,��
2016/12/21,07:50,1.087,1.825,1.186,2.076,1.419,0.565,1.032,0.959,�k�k��,1.7,��
2016/12/21,08:00,1.087,1.823,1.186,2.080,1.420,0.566,1.035,0.959,�k�k��,1.4,��
2016/12/21,08:10,1.089,1.825,1.185,2.080,1.419,0.566,1.034,0.960,�k�k��,0.9,��
2016/12/21,08:20,1.089,1.823,1.185,2.078,1.421,0.565,1.034,0.960,�k��,1.4,��
2016/12/21,08:30,1.091,1.825,1.185,2.077,1.423,0.565,1.036,0.960,�k��,1.2,��
2016/12/21,08:40,1.090,1.824,1.188,2.080,1.422,0.565,1.036,0.960,���k��,1.7,��
2016/12/21,08:50,1.091,1.828,1.188,2.078,1.420,0.568,1.037,0.960,�k��,1.7,��
2016/12/21,09:00,1.091,1.819,1.190,2.081,1.423,0.565,1.035,0.960,�k�k��,2.0,��
2016/12/21,09:10,1.090,1.813,1.189,2.079,1.423,0.567,1.036,0.961,�k�k��,3.1,��
2016/12/21,09:20,1.089,1.826,1.190,2.078,1.427,0.564,1.038,0.960,�k�k��,2.8,��
2016/12/21,09:30,1.091,1.831,1.190,2.082,1.426,0.567,1.038,0.960,�k�k��,3.0,��
2016/12/21,09:40,1.093,1.828,1.191,2.083,1.424,0.566,1.035,0.960,�k,2.0,��
2016/12/21,09:50,1.090,1.829,1.188,2.084,1.428,0.568,1.033,0.959,�k,1.7,��
2016/12/21,10:00,1.091,1.829,1.193,2.082,1.424,0.569,1.032,0.963,�k,2.0,��
2016/12/21,10:10,1.090,1.822,1.191,2.082,1.426,0.567,1.036,0.961,�k,2.2,��
2016/12/21,10:20,1.093,1.823,1.191,2.084,1.424,0.568,1.032,0.961,�k�k��,2.2,��
2016/12/21,10:30,1.093,1.828,1.191,2.081,1.427,0.567,1.032,0.961,�k�k��,2.3,��
2016/12/21,10:40,1.092,1.830,1.193,2.082,1.428,0.567,1.035,0.961,�k,2.3,��
2016/12/21,10:50,1.092,1.824,1.193,2.080,1.426,0.567,1.035,0.962,�k�k��,2.5,��
2016/12/21,11:00,1.095,1.830,1.193,2.080,1.426,0.568,1.033,0.960,�k��,2.6,��
2016/12/21,11:10,1.094,1.829,1.194,2.084,1.428,0.567,1.034,0.960,�k��,3.1,��
2016/12/21,11:20,1.093,1.827,1.194,2.083,1.428,0.565,1.037,0.962,�k��,2.6,��
2016/12/21,11:30,1.097,1.831,1.194,2.082,1.429,0.566,1.033,0.963,���k��,2.5,��
2016/12/21,11:40,1.096,1.829,1.191,2.084,1.426,0.567,1.036,0.961,���k��,2.8,��
2016/12/21,11:50,1.095,1.831,1.195,2.085,1.425,0.566,1.035,0.962,���쓌,2.6,��
2016/12/21,12:00,1.095,1.831,1.195,2.082,1.425,0.567,1.035,0.963,���쓌,2.6,��
2016/12/21,12:10,1.099,1.833,1.196,2.083,1.426,0.569,1.036,0.963,�쓌,3.0,��
2016/12/21,12:20,1.096,1.831,1.195,2.086,1.428,0.568,1.036,0.962,���쓌,3.5,��
2016/12/21,12:30,1.096,1.836,1.194,2.085,1.426,0.571,1.036,0.964,��,3.1,��
2016/12/21,12:40,1.097,1.828,1.193,2.081,1.426,0.569,1.037,0.962,���쓌,2.3,��
2016/12/21,12:50,1.093,1.831,1.191,2.088,1.430,0.568,1.038,0.961,���쓌,1.7,��
2016/12/21,13:00,1.096,1.833,1.194,2.084,1.427,0.568,1.038,0.960,�쓌,2.6,��
2016/12/21,13:10,1.097,1.831,1.194,2.085,1.427,0.570,1.038,0.960,���쓌,3.0,��
2016/12/21,13:20,1.097,1.831,1.194,2.082,1.428,0.568,1.037,0.958,���쓌,2.6,��
2016/12/21,13:30,1.097,1.830,1.194,2.084,1.430,0.569,1.036,0.960,���쓌,1.9,��
2016/12/21,13:40,1.095,1.793,1.190,2.086,1.428,0.568,1.036,0.959,���쓌,2.8,��
2016/12/21,13:50,1.097,1.830,1.192,2.086,1.428,0.568,1.036,0.960,-,-,��
2016/12/21,14:00,1.097,1.831,1.192,2.088,1.432,0.568,1.037,0.959,-,-,��
2016/12/21,14:10,1.095,1.832,1.193,2.087,1.430,0.569,1.038,0.960,-,-,��
2016/12/21,14:20,1.096,1.829,1.194,2.085,1.430,0.568,1.039,0.959,-,-,��
2016/12/21,14:30,1.096,1.829,1.194,2.088,1.431,0.568,1.037,0.959,-,-,��
2016/12/21,14:40,1.096,1.831,1.194,2.085,1.430,0.570,1.037,0.961,-,-,��
2016/12/21,14:50,1.097,1.832,1.195,2.085,1.431,0.569,1.037,0.960,-,-,��
2016/12/21,15:00,1.095,1.831,1.194,2.085,1.431,0.569,1.037,0.962,-,-,��
2016/12/21,15:10,1.097,1.839,1.195,2.086,1.431,0.570,1.041,0.963,-,-,��
2016/12/21,15:20,1.097,1.838,1.196,2.085,1.430,0.569,1.036,0.962,-,-,��
2016/12/21,15:30,1.096,1.839,1.197,2.086,1.429,0.568,1.038,0.962,-,-,��
2016/12/21,15:40,1.095,1.835,1.197,2.084,1.431,0.568,1.038,0.963,-,-,��
2016/12/21,15:50,1.096,1.836,1.197,2.086,1.423,0.568,1.038,0.962,-,-,��
2016/12/21,16:00,1.093,1.838,1.196,2.084,1.427,0.567,1.038,0.965,-,-,��
2016/12/21,16:10,1.098,1.836,1.196,2.085,1.427,0.569,1.038,0.961,��,1.9,��
2016/12/21,16:20,1.096,1.837,1.197,2.084,1.428,0.568,1.038,0.963,��,2.3,��
2016/12/21,16:30,1.099,1.835,1.198,2.083,1.432,0.568,1.039,0.962,��,2.3,��
2016/12/21,16:40,1.099,1.833,1.195,2.083,1.433,0.566,1.037,0.962,��,2.9,��
2016/12/21,16:50,1.099,1.836,1.196,2.082,1.430,0.568,1.038,0.961,��,3.0,��
2016/12/21,17:00,1.098,1.835,1.195,2.083,1.433,0.568,1.036,0.962,��,2.3,��
2016/12/21,17:10,1.098,1.820,1.194,2.081,1.431,0.568,1.037,0.960,��,1.7,��
2016/12/21,17:20,1.097,1.812,1.196,2.083,1.432,0.568,1.039,0.961,��쐼,1.1,��
2016/12/21,17:30,1.097,1.822,1.194,2.082,1.432,0.571,1.038,0.961,��쐼,0.6,��
2016/12/21,17:40,1.097,1.834,1.195,2.081,1.432,0.566,1.038,0.961,-,CALM,��
2016/12/21,17:50,1.096,1.835,1.193,2.082,1.432,0.568,1.038,0.962,�k�k��,0.8,��
2016/12/21,18:00,1.097,1.834,1.194,2.081,1.431,0.568,1.038,0.961,-,CALM,��
2016/12/21,18:10,1.097,1.835,1.195,2.083,1.430,0.567,1.037,0.959,�k��,1.1,��
2016/12/21,18:20,1.095,1.833,1.194,2.082,1.431,0.567,1.036,0.961,���k��,1.4,��
2016/12/21,18:30,1.096,1.837,1.194,2.086,1.429,0.567,1.037,0.960,��,1.2,��
2016/12/21,18:40,1.096,1.833,1.196,2.083,1.432,0.568,1.038,0.959,��,1.2,��
2016/12/21,18:50,1.094,1.837,1.194,2.082,1.428,0.568,1.037,0.959,��,1.4,��
2016/12/21,19:00,1.095,1.835,1.194,2.080,1.429,0.567,1.036,0.961,��,1.2,��
2016/12/21,19:10,1.097,1.833,1.195,2.084,1.430,0.566,1.037,0.959,��,1.1,��
2016/12/21,19:20,1.097,1.833,1.193,2.080,1.432,0.567,1.037,0.959,���쐼,1.2,��
2016/12/21,19:30,1.097,1.834,1.195,2.081,1.430,0.568,1.036,0.959,��쐼,1.1,��
2016/12/21,19:40,1.099,1.833,1.194,2.082,1.433,0.568,1.036,0.960,��쐼,1.5,��
2016/12/21,19:50,1.098,1.834,1.196,2.081,1.430,0.567,1.036,0.959,�쐼,2.5,��
2016/12/21,20:00,1.096,1.831,1.192,2.080,1.431,0.567,1.036,0.961,��쐼,2.8,��
2016/12/21,20:10,1.097,1.833,1.194,2.082,1.431,0.565,1.037,0.961,��쐼,3.6,��
2016/12/21,20:20,1.094,1.834,1.193,2.080,1.430,0.568,1.033,0.959,�쐼,3.7,��
2016/12/21,20:30,1.095,1.833,1.194,2.081,1.431,0.564,1.037,0.961,�쐼,4.7,��
2016/12/21,20:40,1.096,1.830,1.195,2.080,1.431,0.567,1.035,0.961,�쐼,6.5,��
2016/12/21,20:50,1.097,1.833,1.192,2.081,1.431,0.568,1.037,0.962,�쐼,6.2,��
2016/12/21,21:00,1.094,1.831,1.194,2.082,1.430,0.567,1.037,0.962,�쐼,5.0,��
2016/12/21,21:10,1.096,1.832,1.194,2.079,1.430,0.567,1.036,0.961,�쐼,4.2,��
2016/12/21,21:20,1.094,1.834,1.195,2.080,1.431,0.567,1.037,0.962,�쐼,3.3,��
2016/12/21,21:30,1.096,1.835,1.192,2.082,1.433,0.566,1.036,0.960,��쐼,3.3,��
2016/12/21,21:40,1.095,1.835,1.193,2.080,1.431,0.565,1.036,0.962,��,3.9,��
2016/12/21,21:50,1.095,1.835,1.193,2.079,1.430,0.566,1.036,0.961,��쓌,3.4,��
2016/12/21,22:00,1.093,1.832,1.192,2.081,1.429,0.568,1.036,0.961,��,3.4,��
2016/12/21,22:10,1.095,1.835,1.193,2.080,1.431,0.566,1.035,0.960,��,3.1,��
2016/12/21,22:20,1.094,1.833,1.194,2.079,1.429,0.565,1.038,0.960,��,2.0,��
2016/12/21,22:30,1.096,1.829,1.191,2.079,1.429,0.569,1.035,0.961,��,2.0,��
2016/12/21,22:40,1.094,1.834,1.194,2.081,1.429,0.567,1.037,0.961,�쐼,2.3,��
2016/12/21,22:50,1.094,1.830,1.196,2.079,1.429,0.568,1.034,0.962,�쐼,3.6,��
2016/12/21,23:00,1.094,1.833,1.195,2.078,1.431,0.567,1.034,0.959,�쐼,4.7,��
2016/12/21,23:10,1.089,1.833,1.192,2.079,1.429,0.568,1.034,0.960,�쐼,4.5,��
2016/12/21,23:20,1.091,1.831,1.191,2.081,1.431,0.566,1.036,0.959,�쐼,5.0,��
2016/12/21,23:30,1.094,1.828,1.193,2.082,1.426,0.566,1.037,0.960,�쐼,4.3,��
2016/12/21,23:40,1.093,1.832,1.193,2.080,1.426,0.567,1.038,0.960,��쐼,3.2,��
2016/12/21,23:50,1.094,1.829,1.193,2.082,1.429,0.566,1.036,0.962,��쓌,2.0,��
